sat.trackr.live / text

‹ back to catalog

TRANSPORTER-10 OBJECT AW

NORAD 59142 · 2024-043AW

PAYLOAD ACTIVE UNKNOWN

§ Identity

Operator
Country
TBD
Launch date
2024-03-04
Launch site
AFWTR
Launch vehicle
Mass (kg)
RCS (m²)

External: N2YO · Heavens-Above · Gunter

§ Orbital elements

Epoch: 2026-05-24T23:10:51.803040Z

Period
90.18 min
Inclination
97.5329°
Eccentricity
0.0006961
Mean motion
15.96866980 rev/d
Perigee alt
278.5 km
Apogee alt
287.8 km
Semi-major
6,661.3 km
B*
7.8708e-4
RAAN
303.5074°
Arg perigee
244.4040°
Mean anomaly
115.6517°
Rev number
12,489

§ Raw data

TRANSPORTER-10 OBJECT AW1 59142U 24043AW  26144.96587735  .00335250  47407-4  78708-3 0  99982 59142  97.5329 303.5074 0006961 244.4040 115.6517 15.96866980124898

JSON: /api/v1/satellites/59142 · /tle

For live sub-satellite position, see the globe view (requires WebGL).

§ Visibility from observer

Set your observer location to see the next 7 days of passes ≥ 10°. The values pass through the URL so the page stays shareable.

No JS? Fill the form by hand. The geolocation button needs JavaScript.